This is the latest recevied weather packets stored in our database for station/object K5RWS. If no packets are shown the sender has not sent any weather packets the latest 10 day(s).
| Time | Temp. | Humidity | Pressure | Rain* | Wind** | Luminosity | Snow |
|---|---|---|---|---|---|---|---|
| 1777818044 | 11.11° C | 59% | 1024.4 hPa | 0 mm | - | 238 W/m² | - |
| 1777817741 | 11.67° C | 59% | 1024.4 hPa | 0 mm | - | 223 W/m² | - |
| 1777817438 | 11.11° C | 59% | 1024.3 hPa | 0 mm | - | 236 W/m² | - |
| 1777817134 | 11.11° C | 60% | 1024.4 hPa | 0 mm | - | 209 W/m² | - |
| 1777816832 | 10.56° C | 61% | 1024.4 hPa | 0 mm | - | 192 W/m² | - |
| 1777816529 | 10.56° C | 61% | 1024.3 hPa | 0 mm | - | 174 W/m² | - |
| 1777816226 | 10.56° C | 63% | 1024.5 hPa | 0 mm | - | 161 W/m² | - |
| 1777815923 | 10° C | 64% | 1024.4 hPa | 0 mm | - | 143 W/m² | - |
| 1777815621 | 9.44° C | 66% | 1024.4 hPa | 0 mm | - | 114 W/m² | - |
| 1777815318 | 9.44° C | 67% | 1024.5 hPa | 0 mm | - | 71 W/m² | - |
| 1777815015 | 9.44° C | 68% | 1024.3 hPa | 0 mm | - | 59 W/m² | - |
| 1777814711 | 9.44° C | 68% | 1024.4 hPa | 0 mm | - | 78 W/m² | - |
| 1777814407 | 9.44° C | 68% | 1024.3 hPa | 0 mm | - | 80 W/m² | - |
| 1777814105 | 8.89° C | 70% | 1024.4 hPa | 0 mm | - | 86 W/m² | - |
| 1777813801 | 8.89° C | 72% | 1024.5 hPa | 0 mm | - | 75 W/m² | - |
| 1777813499 | 8.89° C | 72% | 1024.3 hPa | 0 mm | - | 63 W/m² | - |
| 1777813196 | 8.89° C | 71% | 1024.2 hPa | 0 mm | - | 53 W/m² | - |
| 1777812894 | 8.89° C | 72% | 1024.1 hPa | 0 mm | - | 41 W/m² | - |
| 1777812590 | 8.33° C | 73% | 1024.3 hPa | 0 mm | - | 33 W/m² | - |
| 1777812288 | 7.78° C | 75% | 1024.2 hPa | 0 mm | - | 26 W/m² | - |
| 1777811986 | 7.78° C | 76% | 1024.1 hPa | 0 mm | - | 20 W/m² | - |
| 1777811684 | 7.22° C | 77% | 1024.2 hPa | 0 mm | - | 16 W/m² | - |
| 1777811380 | 7.22° C | 77% | 1024.1 hPa | 0 mm | - | 12 W/m² | - |
| 1777811077 | 6.67° C | 78% | 1024.3 hPa | 0 mm | - | 9 W/m² | - |
| 1777810774 | 6.67° C | 78% | 1024.3 hPa | 0 mm | - | 6 W/m² | - |
* Rain latest hour (hover to see other rain measurements)
** Current wind speed in m/s (hover to see current wind gust speed)